Date String (YYYY-MM-DD hh:mm:ss) UTC,Instrument flags,Ambient pressure (hPa),Sample flow (lpm),Bypass flow (lpm),Sample temperature (°C),Ambient temperature (°C),ASC tube jacket temperature (°C),LED temperature (°C),Box temperature (°C),Sample RH (%),Span deviation,Mass concentration (μg/m³),Mass concentration (μg/m³),Mass concentration (μg/m³)
DateTimeUTC,F1_M11,P_M11,Q1_M11,Q2_M11,T1_M11,T2_M11,T3_M11,T4_M11,T5_M11,U1_M11,ZSPAN_M11,X0_M11,X2_M11,X1_M11
2022-04-17 20:00:00,,0825.3,4.99,0.00,25.7,24.9,00.0,34.6,27.6,14.8,0000.0,0016.69,0005.12,0001.67
2022-04-17 20:01:00,,0825.3,5.01,0.00,25.7,24.9,00.0,34.6,27.6,14.6,0000.0,0016.93,0005.20,0001.69
2022-04-17 20:02:00,,0825.2,5.00,0.00,25.7,24.9,00.0,34.7,27.6,15.1,0000.0,0017.55,0005.24,0001.70
2022-04-17 20:03:00,,0825.3,5.00,0.00,25.7,24.9,00.0,34.7,27.6,14.8,0000.0,0018.37,0005.27,0001.70
2022-04-17 20:04:00,,0825.3,5.00,0.00,25.8,24.9,00.0,34.7,27.6,14.6,0000.0,0018.31,0005.30,0001.71
2022-04-17 20:05:00,,0825.4,5.01,0.00,25.8,24.9,00.0,34.7,27.6,14.6,0000.0,0018.29,0005.37,0001.75
2022-04-17 20:06:00,,0825.4,4.99,0.00,25.8,24.9,00.0,34.7,27.6,14.9,0000.0,0017.89,0005.47,0001.76
2022-04-17 20:07:00,,0825.3,4.98,0.00,25.8,24.9,00.0,34.7,27.6,14.7,0000.0,0017.85,0005.56,0001.79
2022-04-17 20:08:00,,0825.4,5.01,0.00,25.8,24.9,00.0,34.7,27.6,14.7,0000.0,0018.11,0005.69,0001.79
2022-04-17 20:09:00,,0825.4,5.00,0.00,25.8,25.0,00.0,34.7,27.7,14.5,0000.0,0017.69,0005.65,0001.80
2022-04-17 20:10:00,,0825.5,4.99,0.00,25.8,24.9,00.0,34.7,27.7,14.1,0000.0,0016.86,0005.65,0001.81
2022-04-17 20:11:00,,0825.3,5.00,0.00,25.8,24.9,00.0,34.7,27.7,14.4,0000.0,0017.13,0005.65,0001.79
2022-04-17 20:12:00,,0825.4,5.01,0.00,25.8,24.9,00.0,34.7,27.7,15.0,0000.0,0018.38,0005.57,0001.75
2022-04-17 20:13:00,,0825.3,5.00,0.00,25.8,24.9,00.0,34.7,27.7,15.5,0000.0,0018.02,0005.47,0001.71
2022-04-17 20:14:00,,0825.4,4.99,0.00,25.8,24.8,00.0,34.7,27.7,15.9,0000.0,0017.36,0005.35,0001.67
2022-04-17 20:15:00,,0825.3,5.01,0.00,25.8,24.8,00.0,34.7,27.7,15.8,0000.0,0017.51,0005.29,0001.66
2022-04-17 20:16:00,,0825.5,5.00,0.00,25.8,24.8,00.0,34.7,27.7,15.5,0000.0,0017.42,0005.22,0001.65
2022-04-17 20:17:00,,0825.5,5.00,0.00,25.8,24.8,00.0,34.7,27.7,15.6,0000.0,0017.32,0005.10,0001.63
2022-04-17 20:18:00,,0825.6,5.00,0.00,25.8,24.9,00.0,34.7,27.7,15.3,0000.0,0016.55,0004.98,0001.61
2022-04-17 20:19:00,,0825.6,5.00,0.00,25.8,24.9,00.0,34.7,27.7,15.1,0000.0,0016.08,0004.89,0001.62
2022-04-17 20:20:00,,0825.6,4.99,0.00,25.8,24.9,00.0,34.7,27.6,14.7,0000.0,0016.94,0004.81,0001.57
2022-04-17 20:21:00,,0825.8,4.99,0.00,25.8,24.9,00.0,34.7,27.6,15.0,0000.0,0016.76,0004.78,0001.51
2022-04-17 20:22:00,,0825.8,5.01,0.00,25.8,24.9,00.0,34.7,27.6,15.8,0000.0,0016.34,0004.76,0001.50
2022-04-17 20:23:00,,0825.8,4.99,0.00,25.8,24.9,00.0,34.7,27.6,16.0,0000.0,0015.47,0004.76,0001.52
2022-04-17 20:24:00,,0825.9,4.99,0.00,25.8,24.9,00.0,34.8,27.6,15.2,0000.0,0015.22,0004.78,0001.55
2022-04-17 20:25:00,,0825.9,4.99,0.00,25.8,24.9,00.0,34.8,27.6,14.9,0000.0,0015.19,0004.87,0001.57
2022-04-17 20:26:00,,0826.0,5.00,0.00,25.9,24.9,00.0,34.8,27.7,15.3,0000.0,0015.53,0004.97,0001.57
2022-04-17 20:27:00,,0826.0,5.01,0.00,25.9,25.0,00.0,34.8,27.7,15.8,0000.0,0017.71,0004.98,0001.54
2022-04-17 20:28:00,,0826.0,5.00,0.00,25.9,25.0,00.0,34.8,27.7,16.1,0000.0,0018.06,0005.00,0001.56
2022-04-17 20:29:00,,0826.0,4.98,0.00,25.9,25.0,00.0,34.8,27.7,15.9,0000.0,0018.15,0005.03,0001.58
2022-04-17 20:30:00,,0826.1,5.01,0.00,25.9,25.0,00.0,34.8,27.7,16.1,0000.0,0017.87,0005.03,0001.55
2022-04-17 20:31:00,,0826.1,5.01,0.00,25.9,25.0,00.0,34.8,27.7,16.3,0000.0,0016.85,0005.02,0001.55
2022-04-17 20:32:00,,0826.0,4.99,0.00,25.9,25.0,00.0,34.8,27.7,16.5,0000.0,0016.92,0004.94,0001.56
2022-04-17 20:33:00,,0825.8,4.99,0.00,25.9,25.0,00.0,34.8,27.7,16.5,0000.0,0017.11,0004.90,0001.55
2022-04-17 20:34:00,,0825.7,5.02,0.00,25.9,25.0,00.0,34.8,27.7,17.2,0000.0,0017.29,0004.84,0001.52
2022-04-17 20:35:00,,0825.8,4.99,0.00,25.9,25.0,00.0,34.8,27.7,17.5,0000.0,0017.14,0004.79,0001.49
2022-04-17 20:36:00,,0825.7,5.00,0.00,25.9,25.0,00.0,34.8,27.7,17.2,0000.0,0016.83,0004.70,0001.48
2022-04-17 20:37:00,,0825.6,5.01,0.00,25.9,25.0,00.0,34.8,27.7,17.3,0000.0,0015.91,0004.57,0001.45
2022-04-17 20:38:00,,0825.6,4.99,0.00,25.9,24.9,00.0,34.8,27.7,16.7,0000.0,0013.60,0004.47,0001.43
2022-04-17 20:39:00,,0825.6,4.99,0.00,25.9,24.9,00.0,34.8,27.7,17.0,0000.0,0013.14,0004.31,0001.40
2022-04-17 20:40:00,,0825.5,4.99,0.00,25.9,24.9,00.0,34.8,27.7,17.9,0000.0,0012.82,0004.18,0001.35
2022-04-17 20:41:00,,0825.6,5.01,0.00,25.9,24.9,00.0,34.8,27.7,16.9,0000.0,0012.70,0004.10,0001.32
2022-04-17 20:42:00,,0825.6,4.99,0.00,25.9,24.9,00.0,34.8,27.8,16.6,0000.0,0012.73,0004.05,0001.27
2022-04-17 20:43:00,,0825.8,4.99,0.00,25.9,24.9,00.0,34.8,27.8,17.0,0000.0,0012.74,0004.07,0001.25
2022-04-17 20:44:00,,0825.9,5.01,0.00,25.9,24.9,00.0,34.8,27.8,16.9,0000.0,0012.89,0004.10,0001.23
2022-04-17 20:45:00,,0825.9,5.00,0.00,25.9,24.9,00.0,34.8,27.8,17.2,0000.0,0011.93,0004.13,0001.24
2022-04-17 20:46:00,,0825.9,4.99,0.00,25.9,24.9,00.0,34.8,27.8,17.2,0000.0,0011.80,0004.13,0001.24
2022-04-17 20:47:00,,0825.9,4.99,0.00,25.9,24.9,00.0,34.8,27.8,16.7,0000.0,0012.08,0004.09,0001.23
2022-04-17 20:48:00,,0826.0,4.99,0.00,25.9,24.9,00.0,34.8,27.7,16.3,0000.0,0012.11,0004.07,0001.22
2022-04-17 20:49:00,,0826.1,5.01,0.00,25.9,25.0,00.0,34.8,27.7,16.1,0000.0,0012.73,0004.05,0001.20
2022-04-17 20:50:00,,0826.0,5.01,0.00,25.9,25.0,00.0,34.8,27.7,16.6,0000.0,0012.37,0004.06,0001.17
2022-04-17 20:51:00,,0826.1,4.99,0.00,25.9,25.0,00.0,34.8,27.7,16.6,0000.0,0012.52,0004.11,0001.16
2022-04-17 20:52:00,,0826.0,4.99,0.00,25.8,25.0,00.0,34.8,27.7,16.6,0000.0,0012.63,0004.14,0001.17
2022-04-17 20:53:00,,0826.1,5.01,0.00,25.8,25.0,00.0,34.8,27.7,16.4,0000.0,0012.96,0004.17,0001.18
2022-04-17 20:54:00,,0826.1,4.99,0.00,25.8,25.0,00.0,34.8,27.6,16.2,0000.0,0013.54,0004.23,0001.21
2022-04-17 20:55:00,,0826.1,4.99,0.00,25.8,25.0,00.0,34.8,27.6,16.6,0000.0,0013.91,0004.28,0001.22
2022-04-17 20:56:00,,0826.0,5.00,0.00,25.9,25.0,00.0,34.8,27.7,16.0,0000.0,0014.72,0004.29,0001.24
2022-04-17 20:57:00,,0826.1,5.01,0.00,25.9,25.0,00.0,34.8,27.7,15.4,0000.0,0016.28,0004.47,0001.28
2022-04-17 20:58:00,,0826.0,4.99,0.00,25.8,24.9,00.0,34.8,27.6,15.9,0000.0,0016.88,0004.69,0001.34
2022-04-17 20:59:00,,0826.0,4.99,0.00,25.8,24.9,00.0,34.8,27.6,15.9,0000.0,0017.40,0004.80,0001.38
